Faith, SD

11:41 AM MDT on October 19, 2017 (GMT -0600)
Faith

Weather History for KD07 - October, 2011

Change the Weather History Date:

Sunday, October 30, 2011

  Actual Average Record
Temperature  
Mean Temperature 43 °F 41 °F  
Max Temperature 54 °F 52 °F 73 °F (2008)
Min Temperature 32 °F 30 °F 9 °F (2002)
Degree Days  
Heating Degree Days 22 24  
Month to date heating degree days 415 543  
Since 1 July heating degree days 582 775  
Cooling Degree Days 0 0  
Month to date cooling degree days 26 0  
Year to date cooling degree days 699 634  
Moisture  
Dew Point 22 °F    
Average Humidity 53    
Maximum Humidity 82    
Minimum Humidity 24    
Precipitation  
Precipitation 0.00 in 0.05 in 0.26 in (2005)
Month to date precipitation 0.49 1.49  
Year to date precipitation 17.67 16.67  
Sea Level Pressure  
Sea Level Pressure 30.06 in    
Wind  
Wind Speed 13 mph (WNW)    
Max Wind Speed 23 mph    
Max Gust Speed 69 mph    
T = Trace of Precipitation, MM = Missing Value Source: NWS Daily Summary

Daily Weather History Graph

Daily Weather History Graph

Search for Another Location

Airport or City:

Trip Planner

Search our weather history database for the weather conditions in past years. The results will help you decide how hot, cold, wet, or windy it might be!

Date:

Astronomy

Oct. 30, 2011 Rise Set
Actual Time 7:23 AM MDT 5:39 PM MDT
Civil Twilight 6:53 AM MDT 6:09 PM MDT
Nautical Twilight 6:18 AM MDT 6:44 PM MDT
Astronomical Twilight 5:44 AM MDT 7:18 PM MDT
Moon 11:52 AM MDT (10/30) 9:02 PM MDT (10/30)
Length of Visible Light 11h 16m
Length of Day
10h 15m
Waxing Crescent, 20% of the Moon is Illuminated
Oct 30
Waxing Crescent
Nov 2
First Quarter
Nov 10
Full
Nov 18
Last Quarter
Nov 24
New

Hourly Weather History & Observations

Time (MDT) Temp. Windchill Dew Point Humidity Pressure Visibility Wind Dir Wind Speed Gust Speed Precip Events Conditions
12:56 AM 37.0 °F 28.1 °F 28.9 °F 73% 30.03 in - WNW 15.0 mph - N/A   Unknown
1:56 AM 34.0 °F 24.6 °F 28.0 °F 79% 30.04 in - West 13.8 mph - N/A   Unknown
2:56 AM 33.1 °F 23.9 °F 27.0 °F 78% 30.05 in - West 12.7 mph - N/A   Unknown
3:56 AM 34.0 °F 25.0 °F 26.1 °F 73% 30.04 in - West 12.7 mph - N/A   Unknown
4:56 AM 32.0 °F 21.6 °F 25.0 °F 75% 30.06 in - West 15.0 mph - N/A   Unknown
5:56 AM 32.0 °F 22.5 °F 25.0 °F 75% 30.07 in - West 12.7 mph - N/A   Unknown
6:56 AM 34.0 °F 24.6 °F 26.1 °F 73% 30.07 in - West 13.8 mph - N/A   Unknown
7:56 AM 34.0 °F 24.2 °F 26.1 °F 73% 30.10 in - WNW 15.0 mph - N/A   Unknown
8:56 AM 39.0 °F 29.9 °F 26.1 °F 60% 30.10 in - WNW 17.3 mph 24.2 mph N/A   Unknown
9:56 AM 43.0 °F 34.2 °F 25.0 °F 49% 30.10 in - NW 20.7 mph 27.6 mph N/A   Unknown
10:56 AM 46.0 °F 38.0 °F 24.1 °F 42% 30.11 in - NW 21.9 mph 26.5 mph N/A   Unknown
11:56 AM 48.9 °F - 21.9 °F 35% 30.10 in - NW 19.6 mph 26.5 mph N/A   Unknown
12:56 PM 51.1 °F - 21.0 °F 31% 30.08 in - NW 18.4 mph 27.6 mph N/A   Unknown
1:56 PM 53.1 °F - 21.0 °F 29% 30.06 in - NNW 13.8 mph - N/A   Unknown
2:56 PM 54.0 °F - 19.0 °F 25% 30.05 in - NW 16.1 mph 23.0 mph N/A   Unknown
3:56 PM 54.0 °F - 17.1 °F 23% 30.06 in - NW 12.7 mph - N/A   Unknown
4:56 PM 52.0 °F - 17.1 °F 25% 30.07 in - NW 11.5 mph - N/A   Unknown
5:56 PM 46.9 °F - 18.0 °F 32% 30.08 in - NW 4.6 mph - N/A   Unknown
6:56 PM 44.1 °F - 18.0 °F 35% 30.08 in - Calm Calm - N/A   Unknown
7:56 PM 44.1 °F - 18.0 °F 35% 30.07 in - Calm Calm - N/A   Unknown
8:56 PM 42.1 °F 38.4 °F 18.0 °F 38% 30.04 in - SSE 5.8 mph - N/A   Unknown
9:56 PM 35.1 °F 26.9 °F 18.0 °F 50% 30.04 in - South 11.5 mph - N/A   Unknown
10:56 PM 35.1 °F 27.9 °F 19.0 °F 52% 30.03 in - SSW 9.2 mph - N/A   Unknown
11:56 PM 35.1 °F 26.9 °F 19.0 °F 52% 30.01 in - SSW 11.5 mph - N/A   Unknown